Powrót do katalogu

COSMOS 2251 DEB

AktywnyLEO
NORAD 37293·DEBRIS·🇷🇺 Russia

Wystrzelony Jun 16, 1993 z Plesetsk Cosmodrome

Loading…

Następne Przeloty (najbliższe 24 godziny)

TLE

NieaktualneSource: Space-Track

Epoka: Sep 6, 2026, 09:24 UTC

1 37293U 93036BJH 26249.39200324  .00001470  00000-0  40537-3 0  9995
2 37293  73.9213 138.5329 0064718 348.3521  11.6135 14.46555250692421

Śledź COSMOS 2251 DEB w czasie rzeczywistym z AllMySat

Download on the App Store